顯示廣告
隱藏 ✕
※ 本文轉寄自 ptt.cc 更新時間: 2017-11-22 04:30:24
看板 joke
作者 inglee (~一事無成千古恨~)
標題
 [XD] 算是TVBS的日常吧

時間 Sun Nov 19 17:20:35 2017


到底是怎樣的輸入法會這樣的選字

https://i.imgur.com/Um0ieT7.jpg

--
--
※ 發信站: 批踢踢實業坊(ptt.cc), 來自: 1.168.76.64
※ 文章網址: https://www.ptt.cc/bbs/joke/M.1511083238.A.CB8.html
XXXXXXXXXXXD: 這電視不錯1F 11/19 17:29
Bboykeyes: https://i.imgur.com/5hYdFlJ.jpg2F 11/19 17:40
[圖]
 
Bboykeyes: https://i.imgur.com/GkP9kgw.jpg3F 11/19 17:41
[圖]
 
YEEman: 蛤4F 11/19 17:42
howdoyoufeel: 反亂噓5F 11/19 18:19
howdoyoufeel: 再推
pokemonya: 反反亂噓7F 11/19 18:33
bt022: 反反反亂噓8F 11/19 19:08
fabooo: 排除婦人機制9F 11/19 19:08
ton200168: 反反反反亂吸10F 11/19 19:17
ton200168: *亂噓...
OGC218: 婦團要出來抗議了12F 11/19 19:20
sam05487: 30m的水果刀是要切啥13F 11/19 19:39
heureuxseed: 30公尺應該是斬艦刀14F 11/19 19:45
lionjona: 30M哪揮得動15F 11/19 19:46
qaz9876544: 30m水果刀 妳是死神看太多?16F 11/19 19:49
aassdtw: ㄏㄧㄏ17F 11/19 19:51
andyyy: 7/39是三小18F 11/19 19:51
Milktea715: 30公尺那個看幾次都很好笑19F 11/19 19:58
short945: 7/39就進位成8/820F 11/19 20:07
BILLYTHEKID: 30公尺是卍解後的長度21F 11/19 20:08
yuyun23: 噓不意外22F 11/19 20:23
diqoedin: 30cm水果刀?23F 11/19 20:39
howdoyoufeel: 反反反反亂噓24F 11/19 20:48
howdoyoufeel: 少一個反
seadf2003: 7/39?!Tabs不意外26F 11/19 21:46
Instru01: 市丸銀去臺中幹嘛27F 11/19 21:46
newversion: 女權: 柯排婦 叭叭~28F 11/19 22:02
MMMXD: https://i.imgur.com/5CSUgS8.jpg29F 11/19 22:04
[圖]
 
MMMXD: https://i.imgur.com/3FMrLDs.jpg30F 11/19 22:04
[圖]
 
MMMXD: https://i.imgur.com/CnqX92L.jpg31F 11/19 22:05
[圖]
 
everfree: 幹,推文那些圖www32F 11/19 22:30
irisowo: 推文好好笑XDD33F 11/19 22:39
ccchenny: 反亂噓  不過TVB$也不意外就是了34F 11/19 22:50
marvincathy: 190公里這太好笑啦35F 11/19 22:52
toro388: 0到190不用一秒36F 11/19 22:56
s58111158: 推文好多沒看過的XD37F 11/19 22:57
woula: 30m水果刀XD38F 11/19 23:05
StudentVOICE: 各種秀下限39F 11/19 23:09
celine1234: 190公里XDDDDD40F 11/19 23:15
thechen: 可能國中都沒畢業吧這程度41F 11/19 23:16
mRENm: 推文比較好笑wwwwwww42F 11/19 23:20
spildwj: 30m已經是斬艦刀的等級了吧43F 11/19 23:39
vltw5v: 那個190公里XDDD44F 11/19 23:46
jilcc: 推文的圖XDDD45F 11/19 23:55
raysun0130: 笑死XDDD46F 11/19 23:57
Fackman: 推文47F 11/20 00:08
Fackman: 推文
gipo776: 推文 XD49F 11/20 00:12
mylaptan: 190公里,我快笑死50F 11/20 00:13
ImCasual: 反反反反反反反亂噓51F 11/20 00:14
kamigreat: 190 XD52F 11/20 00:25
qazsedcft 
qazsedcft: 純噓意麵53F 11/20 00:27
qazsedcft: 補推
revive25: 卍解55F 11/20 00:37
Ronniecf: 8成觀光客3成陸客2成台中人 陸客跟觀光客重疊的意思嗎?56F 11/20 00:41
Carpro0329: 190哈哈哈哈哈哈哈哈57F 11/20 00:41
solw1015: http://i.imgur.com/bdnczb2.jpg58F 11/20 00:48
[圖]
 
solw1015: http://i.imgur.com/tCwDzLh.jpg59F 11/20 00:52
[圖]
 
joe996: XDD60F 11/20 00:53
zero12395: 7/39 XD61F 11/20 00:55
Derriclc: 190公里也太好笑XDD62F 11/20 00:56
Madao0149: 190公里我看好久才懂,這錯誤太低能看不出來XDD63F 11/20 01:01
lingling0000: 190笑噴 指針另一邊是不能突出去逆64F 11/20 01:01
q22w: 30m 他媽的卍解了吧65F 11/20 01:06
hlb5828: 智障66F 11/20 01:07
yu130930: 190XDD67F 11/20 01:07
andylin8707: 快笑死68F 11/20 01:16
dundunlin: 抓到了,柯p排婦,叭叭,不用出來選新北市長以示負責69F 11/20 01:17
ShingShiang: 2樓 人家帶的4斬魄刀神槍啦70F 11/20 01:26
jjomj666: 發車怠速就破200km/h 的概念?71F 11/20 01:36
a58524andy: 180代表常開車啦 知道那都快樂表XD72F 11/20 01:38
newversion: IQ=30 誠實給推73F 11/20 01:58
e04su3ao4:  https://i.imgur.com/CuNdPtE.jpg74F 11/20 02:12
[圖]
 
StanQoo: 酸鹼值那張是錯在度數嗎?75F 11/20 02:12
sam397: 推文讓我笑哈哈76F 11/20 02:15
leegogo: 190 XDDDDDDDD77F 11/20 02:24
leegogo: 錯在鹼性跟中性相反了
leegogo: *應該是鹼性和中性
newversion: 查wiki:  PH值80F 11/20 02:42
rsps1008: 110v電流感覺一堆人摸過誒81F 11/20 03:07
ccps9550217: 幫妓者噓 都去當妓者了還要笑他82F 11/20 03:09
teeshan: 190XDD83F 11/20 03:21
devin0329: 190太讚了XDDDDDDDDDD84F 11/20 04:03
Kingisland: 噓原PO  排婦哪裡好笑?85F 11/20 05:46
aa9325867: 樓上的,他指好笑的應該是記者的選字、用語。沒專指排86F 11/20 06:23
aa9325867: 婦吧...
s1030406: 85樓看錯重點了ㄅ…88F 11/20 06:43
motogprossi:  https://i.imgur.com/KjwAaQU.jpg89F 11/20 06:58
[圖]
 
yannicklatte: 推90F 11/20 07:06
limoubijou: 伏特是電壓計算單位,電流是安培…91F 11/20 07:15
eric525498: 190公里 110V電流 好笑92F 11/20 07:18
holyhelm: 林志穎靠北哦XD93F 11/20 07:40
gordon0309: 超好笑94F 11/20 07:40
linchaoyang: 原來言承旭是跟林志穎…嗯,祝福他們95F 11/20 07:43
AAPL: XDD96F 11/20 08:00
nt1206: 林志穎超好笑哈哈哈哈哈97F 11/20 08:03
Sitzuyo: 幹 回覆圖太好笑了吧98F 11/20 08:19
XseraphimX: 林志穎這樣怎麼對的起家人!99F 11/20 08:54
vordanyumil: 林志穎那個沒錯啊...是因為韓媒把林志玲的照片誤植為100F 11/20 08:54
vordanyumil: 林志穎,然後他發文自嘲啊
t780330: 30M一定是万解了102F 11/20 08:59
john29908: 因為大家都知道是排富不是排婦103F 11/20 09:11
richman88: 樓下是不是有近視?或是有沒有擠上車?104F 11/20 09:27
ww: 咦 你怎知我近視  不過ptt上有幾個人沒近視?105F 11/20 09:35
hidewin200: 30m就算了 搞不好真的就打錯,190公里是殺小106F 11/20 09:47
nfrxzguosd: http://i.imgur.com/arlJNJu.jpg107F 11/20 09:59
[圖]
 
how3550: 樓上2500公里的步槍已經是飛彈等級了XDD108F 11/20 10:14
MoonMan0319: 第一張圖我還以為爆點是公噸109F 11/20 10:27
fakejoker: 2500公里飛三秒 厲害厲害110F 11/20 10:31
MMMXD: https://i.imgur.com/z2rZcb9.jpg111F 11/20 10:40
[圖]
 
MMMXD: https://i.imgur.com/ijxIVuy.jpg112F 11/20 10:40
[圖]
 
MMMXD: https://i.imgur.com/vGVAevr.jpg113F 11/20 10:40
[圖]
 
MMMXD: https://i.imgur.com/HwKQBJD.jpg114F 11/20 10:40
[圖]
 
MMMXD: https://i.imgur.com/CaOj5Iq.jpg115F 11/20 10:40
[圖]
 
Takuri: 酸鹼值連我這個理化白痴都懂了,怎麼還有人不會= =116F 11/20 10:45
danny680344: 30m水果刀XDD117F 11/20 10:48
andy8568: 樓上那些圖XDDD118F 11/20 10:48
andy8568: l'ii哈哈哈哈哈
kakeruto186: 跳蛋姐姐XDD120F 11/20 10:53
APC: XDD121F 11/20 10:54
hkai: 推文的圖 笑翻122F 11/20 11:15
ATand: 2500km飛三秒,金小胖看到了還不請你來北韓當民族英雄123F 11/20 11:26
lwrwang: M大太有心了吧!蒐集了這麼多新聞圖124F 11/20 12:00
Meerz: 笑死XD這智商真的沒有極限125F 11/20 12:04
qoo60606: 水果刀的卍解126F 11/20 12:05
a00160843: 有害氣體我快笑死,無害就不會叫有害了啦!!!精神分127F 11/20 12:09
a00160843: 裂嗎?
Meerz: 笑死,156就到頂XD129F 11/20 12:10
visual: 很多新圖 給推130F 11/20 12:34
angel0328: TVBS快點蒐集起來又是一篇專欄囉~131F 11/20 12:41
g666g3572: 推文XD132F 11/20 12:46
lily410: 週一就是要看這種文 很舒壓哈哈哈133F 11/20 12:54
gbls9527341: 推134F 11/20 12:58
ddev: 190公里是真的嗎XD 覺得太扯,可能是開玩笑的?135F 11/20 13:31
bruce10108: 推文太強136F 11/20 13:46
Jenny0725: 讚137F 11/20 13:49
straypoet: 幹...7/39是啥毀 還有...30公尺的刀揮舞起來應該連恐龍138F 11/20 13:54
forgenius: 族拼圖139F 11/20 13:57
MMMXD: 再推140F 11/20 14:10
MMMXD: https://i.imgur.com/vkQJtda.jpg
[圖]
 
MMMXD: https://i.imgur.com/wtrkJJF.jpg142F 11/20 14:11
[圖]
 
MMMXD: https://i.imgur.com/aaspaPs.jpg143F 11/20 14:11
[圖]
 
nodnarb1027: 抓到柯丕反女權144F 11/20 14:14
maxint: 190…只是停車就超速了XD145F 11/20 14:18
heycircle: 推文笑死146F 11/20 14:43
anper: https://imgur.com/a/bWbZp147F 11/20 14:48
[圖]
 
anper: https://i.imgur.com/a/bWbZp148F 11/20 14:49
Pcinereus: 推文XDDDDDDDDDDDD149F 11/20 14:59
sligiho: 記者150F 11/20 15:01
michellehsie: 7/39好好笑151F 11/20 16:21
michellehsie: https://i.imgur.com/PV9D6YM.jpg
[圖]
 
mini4955: XDDDD153F 11/20 16:24
LargeLanPa: 記者不意外XD154F 11/20 16:39
mmmimi11tw: http://i.imgur.com/wSOjQR3.jpg155F 11/20 16:43
[圖]
 
a20052403: https://i.imgur.com/1m2T4Zw.jpg156F 11/20 16:53
[圖]
 
milker: 幹我真的快笑死   累了嗎157F 11/20 16:59
nikl206: 火燒島的規模了!158F 11/20 17:25
wei10316053: 不是新聞壞掉是電視壞掉啦50收159F 11/20 18:16
ddev: 啊看…起火點這種錯誤是要怎樣才辦得到… 是套用 template160F 11/20 18:24
ddev: 時漏改嗎?
narowang: 伏特是電壓記者國中沒畢業162F 11/20 18:27
sl02799030: 笑死全島燒起來163F 11/20 18:32
adjj8644: 190 30 39 這些不會太誇張嗎?XD164F 11/20 18:55
imnisfree: 記得之前有個神串 就上面的說 下面的貼圖 大家接力xd165F 11/20 19:00
s910928: 這篇可以當第二集了166F 11/20 19:07
sligiho: 按鈴那個讓我笑噴167F 11/20 19:27
MMMXD: https://i.imgur.com/5ZGiAnX.jpg168F 11/20 19:40
[圖]
 
MMMXD: https://i.imgur.com/KVWDDkA.jpg169F 11/20 19:41
[圖]
 
MMMXD: https://i.imgur.com/jGjJyIC.jpg170F 11/20 19:41
[圖]
 
MMMXD: https://i.imgur.com/SefxDla.jpg171F 11/20 19:41
[圖]
 
MMMXD: https://i.imgur.com/o8rqDax.jpg172F 11/20 19:41
[圖]
 
MMMXD: https://i.imgur.com/lZ9YHXL.jpg173F 11/20 19:41
[圖]
 
TSMG: 樓下可以幫我打馬賽克嗎?174F 11/20 19:45
MMMXD: 嘿  這種圖我最多了175F 11/20 19:54
MMMXD: https://i.imgur.com/tG0C6L6.jpg
[圖]
 
DSun: 看不懂單身177F 11/20 19:56
steven89185: http://i.imgur.com/e909Yni.jpg178F 11/20 19:56
[圖]
 
MMMXD: 「單身者每三人有一人單身」不是矛盾了嗎?179F 11/20 19:59
Yeh0622: 國旗全錯是三小XDDDDDD180F 11/20 20:08
Yeh0622: 國旗笑超久
karta513165: 對一個西班牙182F 11/20 20:22
gngn5566: 低調不敢面對鏡頭XD183F 11/20 20:29
kbsta24: 阿根廷也對啊XD184F 11/20 20:30
naruto62: https://i.imgur.com/yzcc91G.jpg185F 11/20 20:40
[圖]
 
jp6jo42842u4: https://i.imgur.com/1sHNyLer.jpg186F 11/20 20:49
jilcc: 有很多新的沒看過再推一次XDDD187F 11/20 20:55
KYLAT: https://i.imgur.com/sVJ5ul3.jpg188F 11/20 21:18
[圖]
 
code666666: 有新圖有笑有推 ㄎㄎ189F 11/20 21:31
jnasthe4th: 推有新圖XDD190F 11/20 21:35
vdvd: 郝那張問題是..?191F 11/20 22:02
show159392: 不懂原po 想噓192F 11/20 22:02
vdvd: 厲耿鬼芳那個我爆笑 其實不算記者的193F 11/20 22:03
e920528: 立委落選人吧194F 11/20 22:05
hat13201: 原來是按鈴申告啊,我以為是需要人家服務呢XDDD195F 11/20 22:27
xxctsd: 那個近視兒童呢196F 11/20 22:40
zoobi: https://i.imgur.com/N1luDR0.jpg197F 11/20 22:51
[圖]
 
batista99: 沒看到樓上的梗198F 11/20 23:00
HT2: 一碗拉麵199F 11/20 23:08
HT2: 一蘭?
s910928: 舊圖不用啦,這篇po新的就好201F 11/20 23:17
y35246357468: 有些舊的看了還是會覺得好笑XD202F 11/20 23:40
lowvision: 哈哈哈每過一陣子都有新圖真想哭203F 11/21 00:20
DeAaronFox: 笑到肚子好痛XDDDDDD204F 11/21 00:21
ccchenny: 梗莉鬼方那個就硬是要唱柯p反調啊 感謝記者故意婊它205F 11/21 00:45

--
※ 看板: PttHot 文章推薦值: 5 目前人氣: 0 累積人氣: 8133 
※ 本文也出現在看板: ott Joke diabloex
※ 推薦文章:
分享網址:
( ̄︶ ̄)b hjb, simon9331, et79210, Steven0217, pingtall 說讚!
ott 轉錄至看板 ott (使用連結) 時間:2017-11-21 11:54:49
1樓 時間: 2017-11-21 12:02:59
  11-21 12:02
30公尺都拿得起來 就真的可以斬妖除魔了
2樓 時間: 2017-11-21 14:04:05
  11-21 14:04
這些弱智技者,上面那些長官,才是真的腦殘,都不用看稿?
3樓 時間: 2017-11-21 23:25:00
  11-21 23:25
30m比偉大的鄉民還長,這不科學阿。
r)回覆 e)編輯 d)刪除 M)不收藏 ^x)轉錄 同主題: =)首篇 [)上篇 ])下篇